Погода в Архангеле

Россия / Ивановская область     57°06′22″N   40°19′21″E
темп.,
°C
ветер,
м/с
пор.,
м/с
влажн.,
%
обл.,
%
осадки,
мм/ч
давл.,
гПа
погр.,
м
17 апреля, сб
сб1700:00+7всв5137796 0.0 1025490
03:00+5всв5138391 0.0 1026392
06:00+4всв4138143 0.0 1026398
09:00+8в59617 0.0 1026558
12:00+12всв68495 0.0 1026956
15:00+14всв68405 0.0 10251109
18:00+12всв510445 0.0 1024959
21:00+8всв5135626 0.0 1025565
18 апреля, вс
вс1800:00+6всв4136857 0.0 1025520
03:00+5всв514735 0.0 1025495
06:00+4всв513765 0.0 1025481
09:00+8в611564 0.0 1025906
12:00+12в68415 0.0 10241520
15:00+13в68386 0.0 10241906
18:00+11в594656 0.0 10251548
21:00+8всв5126521 0.0 1026636
19 апреля, пн
пн1900:00+5всв5128220 0.0 1027514
03:00+4всв4108163 0.0 1028474
06:00+3всв41074100 0.0 1028517
09:00+5всв586098 0.0 1028680
12:00+8в685093 0.0 10281182
15:00+9в684876 0.0 10281517
18:00+9в584959 0.0 10271502
21:00+5в5124713 0.0 1028632
20 апреля, вт
вт2000:00+3в51254100 0.0 1028542
03:00+2в51258100 0.0 1027511
06:00+1в51364100 0.0 1026550
09:00+4в6115995 0.0 1025711
12:00+7в6125861 0.0 1024953
15:00+11вюв7125098 0.0 10211393
18:00+10в71554100 0.0 10181306
21:00+8вюв81760100 0.0 10161189
21 апреля, ср
ср2100:00+6в91872100 0.4 1012950
03:00+6вюв81987100 2.6 10091141
06:00+6вюв71791100 4.8 10071091
09:00+6вюв71691100 7.1 10061089
12:00+8юв71690100 1.0 10051474
15:00+8ю71489100 1.6 10061452
18:00+7ю71475100 0.1 10091336
21:00+7ю7147856 0.1 10111159